Flag for Germany Weather past 2 weeks in Dülmen, North Rhine-Westphalia, Germany

Now
48 °F

Passing clouds.


Feels Like: 46 °F
Forecast: 48 / 60 °F
Wind: 5 mph from South

Location: Muenster / Osnabrueck

Current Time: Oct 26, 2014 at 4:00:55 AM

Latest Report: Oct 26, 2014 at 3:20 AM


Visibility: N/A

Pressure: 30.21 "Hg

Humidity: 94%

Dew point: 46 °F

Location of DülmenLocation

Historic Weather in Dülmen — Graph

°F

Dülmen temperature yesterday

Maximum temperature yesterday: 55 °F (at 12:20 PM)
Minimum temperature yesterday: 50 °F (at 3:50 AM)
Average temperature yesterday: 54 °F

Past Weeks' High & Low Weather Summary

 TemperatureHumidityPressure
High73 °F (Oct 19, 1:50 PM)100% (Oct 11, 3:20 AM)30.21 "Hg (Oct 11, 3:20 AM)
Low45 °F (Oct 11, 7:20 AM)52% (Oct 14, 2:20 PM)29.45 "Hg (Oct 21, 4:20 PM)
Average56 °F88%29.90 "Hg
* Reported Oct 11 3:20 AM — Oct 26 2:50 AM, Dülmen, Weather by CustomWeather, © 2014

Note: Actual official high and low records may vary slightly from our data, if they occured in-between our weather recording intervals... More about our weather records

Advertising

Dülmen weather history for previous 24 hours

 ConditionsComfort  
Time TempWeatherWind HumidityBarometerVisibility
2:50 AM
Oct 26
50 °FPassing clouds.5 mph88%30.21 "HgN/A
2:20 AM50 °FPassing clouds.6 mph88%30.21 "HgN/A
2:50 AM52 °FPassing clouds.7 mph82%30.21 "HgN/A
2:20 AM52 °FPassing clouds.7 mph82%30.21 "HgN/A
1:50 AM52 °FPassing clouds.7 mph82%30.21 "HgN/A
1:20 AM52 °FPassing clouds.5 mph88%30.18 "HgN/A
12:50 AM52 °FPassing clouds.6 mph88%30.18 "HgN/A
12:20 AM54 °FPassing clouds.6 mph82%30.18 "HgN/A
11:50 PM
Oct 25
54 °FPassing clouds.6 mph88%30.18 "HgN/A
11:20 PM54 °FPassing clouds.8 mph88%30.18 "HgN/A
10:50 PM54 °FPassing clouds.9 mph88%30.15 "HgN/A
10:20 PM55 °FPassing clouds.10 mph88%30.15 "HgN/A
9:50 PM55 °FDrizzle. Fog.6 mph100%30.15 "Hg3 mi
9:20 PM55 °FFog.5 mph94%30.12 "Hg3 mi
8:50 PM55 °FFog.6 mph94%30.12 "Hg3 mi
8:20 PM55 °FFog.6 mph94%30.12 "Hg3 mi
7:50 PM55 °FFog.5 mph100%30.12 "Hg3 mi
7:20 PM55 °FDrizzle. Fog.6 mph100%30.12 "Hg2 mi
6:50 PM55 °FDrizzle. Fog.6 mph100%30.12 "Hg2 mi
6:20 PM55 °FDrizzle. Partly sunny.7 mph100%30.09 "Hg4 mi
5:50 PM55 °FPartly sunny.5 mph94%30.09 "Hg4 mi
5:20 PM55 °FBroken clouds.5 mph100%30.09 "Hg4 mi
4:50 PM55 °FFog.5 mph100%30.09 "Hg3 mi
4:20 PM55 °FFog.6 mph100%30.09 "Hg3 mi
3:50 PM55 °FFog.5 mph100%30.09 "Hg3 mi
3:20 PM55 °FDrizzle. Fog.6 mph100%30.09 "Hg1 mi
2:50 PM55 °FDrizzle. Fog.5 mph94%30.09 "Hg2 mi
2:20 PM55 °FPartly sunny.5 mph94%30.09 "Hg4 mi
1:50 PM55 °FPartly sunny.7 mph94%30.09 "Hg4 mi
1:20 PM55 °FFog.9 mph94%30.09 "Hg3 mi
12:50 PM55 °FFog.6 mph94%30.07 "Hg3 mi
12:20 PM55 °FFog.6 mph100%30.07 "Hg2 mi
11:50 AM54 °FFog.6 mph100%30.07 "Hg2 mi
11:20 AM54 °FFog.6 mph100%30.07 "Hg1 mi
10:50 AM54 °FFog.6 mph100%30.07 "Hg1 mi
10:20 AM52 °FFog.7 mph100%30.07 "Hg2 mi
9:50 AM52 °FDrizzle. Fog.6 mph100%30.04 "Hg1 mi
9:20 AM52 °FDrizzle. Fog.6 mph100%30.04 "Hg1 mi
8:50 AM52 °FFog.6 mph100%30.04 "Hg2 mi
8:20 AM52 °FFog.5 mph100%30.04 "Hg2 mi
7:50 AM52 °FFog.6 mph100%30.04 "Hg2 mi
7:20 AM52 °FFog.6 mph100%30.01 "Hg2 mi
6:50 AM52 °FPassing clouds.6 mph100%30.01 "Hg4 mi
6:20 AM52 °FPassing clouds.6 mph94%30.01 "Hg4 mi
5:50 AM52 °FPassing clouds.7 mph94%30.01 "Hg5 mi
5:20 AM52 °FPassing clouds.6 mph94%30.01 "Hg6 mi
4:50 AM50 °FPassing clouds.6 mph100%30.01 "Hg6 mi
4:20 AM50 °FPassing clouds.6 mph100%30.01 "Hg6 mi
Weather by CustomWeather, © 2014

See weather overviewHow to use our weather pages